Chicago Midway, IL

1:49 AM CST on December 09, 2019 (GMT -0600)
Chicago-Midway

Weather History for KMDW - November, 2019

Change the Weather History Date:

Saturday, November 16, 2019

  Actual Average Record
Temperature  
Mean Temperature 36 °F 41 °F  
Max Temperature 42 °F 48 °F 73 °F (1952)
Min Temperature 29 °F 34 °F 5 °F (1933)
Degree Days  
Heating Degree Days 29 24  
Month to date heating degree days 507 322  
Since 1 July heating degree days 898 753  
Cooling Degree Days 0 0  
Month to date cooling degree days 0 0  
Year to date cooling degree days 1131 1045  
Moisture  
Dew Point 27 °F    
Average Humidity 73    
Maximum Humidity 89    
Minimum Humidity 48    
Precipitation  
Precipitation 0.00 in 0.12 in 1.29 in (1928)
Month to date precipitation 0.15 1.85  
Year to date precipitation 42.97 34.95  
Snow  
Snow 0.00 in - - ()
Snow Depth 1.00 in    
Sea Level Pressure  
Sea Level Pressure 30.37 in    
Wind  
Wind Speed 7 mph (ESE)    
Max Wind Speed 14 mph    
Max Gust Speed 20 mph    
Visibility 9 miles    
Events      
T = Trace of Precipitation, MM = Missing Value Source: NWS Daily Summary

Daily Weather History Graph

Daily Weather History Graph

Search for Another Location

Airport or City:

Astronomy

Nov. 16, 2019 Rise Set
Actual Time 6:41 AM CST 4:29 PM CST
Civil Twilight 6:11 AM CST 4:59 PM CST
Nautical Twilight 5:37 AM CST 5:33 PM CST
Astronomical Twilight 5:04 AM CST 6:06 PM CST
Moon 8:00 PM CST (11/16) 10:36 AM CST (11/16)
Length of Visible Light 10h 48m
Length of Day
9h 48m
Waning Gibbous, 82% of the Moon is Illuminated
Nov 16
Waning Gibbous
Nov 19
Last Quarter
Nov 26
New
Dec 4
First Quarter
Dec 11
Full

Hourly Weather History & Observations

Time (CST) Temp. Windchill Dew Point Humidity Pressure Visibility Wind Dir Wind Speed Gust Speed Precip Events Conditions
12:53 AM 30.0 °F 26.5 °F 27.0 °F 88% 30.44 in 10.0 mi East 3.5 mph - N/A   Mostly Cloudy
1:53 AM 33.1 °F 28.7 °F 28.0 °F 82% 30.44 in 9.0 mi East 4.6 mph - N/A   Scattered Clouds
2:53 AM 32.0 °F 28.7 °F 27.0 °F 82% 30.43 in 9.0 mi East 3.5 mph - N/A   Partly Cloudy
3:53 AM 32.0 °F 28.7 °F 27.0 °F 82% 30.43 in 9.0 mi ESE 3.5 mph - N/A   Partly Cloudy
4:53 AM 30.9 °F - 28.0 °F 89% 30.45 in 8.0 mi Calm Calm - N/A   Clear
5:53 AM 30.0 °F 25.2 °F 27.0 °F 88% 30.45 in 8.0 mi SE 4.6 mph - N/A   Partly Cloudy
6:53 AM 30.9 °F 25.2 °F 27.0 °F 85% 30.46 in 9.0 mi ESE 5.8 mph - N/A   Mostly Cloudy
7:53 AM 33.1 °F 27.7 °F 28.9 °F 85% 30.47 in 8.0 mi ESE 5.8 mph - N/A   Mostly Cloudy
8:53 AM 35.1 °F 26.9 °F 30.0 °F 82% 30.46 in 8.0 mi SE 11.5 mph - N/A   Mostly Cloudy
9:53 AM 36.0 °F 27.5 °F 26.1 °F 67% 30.45 in 9.0 mi SE 12.7 mph - N/A   Mostly Cloudy
11:53 AM 39.0 °F 34.0 °F 28.0 °F 65% 30.41 in 10.0 mi ESE 6.9 mph - N/A   Mostly Cloudy
12:53 PM 41.0 °F 35.8 °F 28.0 °F 60% 30.38 in 10.0 mi ESE 8.1 mph - N/A   Mostly Cloudy
1:53 PM 42.1 °F 36.6 °F 27.0 °F 55% 30.34 in 10.0 mi ESE 9.2 mph - N/A   Mostly Cloudy
2:53 PM 41.0 °F 35.2 °F 28.0 °F 60% 30.33 in 10.0 mi East 9.2 mph - N/A   Mostly Cloudy
3:53 PM 39.0 °F 32.3 °F 28.0 °F 65% 30.32 in 10.0 mi East 10.4 mph - N/A   Scattered Clouds
4:53 PM 37.0 °F 31.0 °F 28.0 °F 70% 30.31 in 10.0 mi East 8.1 mph - N/A   Mostly Cloudy
5:53 PM 37.0 °F 32.4 °F 28.0 °F 70% 30.31 in 10.0 mi ESE 5.8 mph - N/A   Scattered Clouds
6:53 PM 36.0 °F 31.1 °F 28.0 °F 73% 30.30 in 10.0 mi ESE 5.8 mph - N/A   Partly Cloudy
7:53 PM 34.0 °F 28.8 °F 27.0 °F 75% 30.28 in 10.0 mi SE 5.8 mph - N/A   Clear
8:53 PM 34.0 °F 25.5 °F 25.0 °F 70% 30.26 in 10.0 mi SE 11.5 mph - N/A   Clear
9:53 PM 33.1 °F 25.5 °F 24.1 °F 70% 30.26 in 10.0 mi SE 9.2 mph - N/A   Clear
10:53 PM 32.0 °F 24.8 °F 24.1 °F 73% 30.25 in 10.0 mi SE 8.1 mph - N/A   Clear
11:53 PM 32.0 °F 24.8 °F 24.1 °F 73% 30.24 in 10.0 mi SE 8.1 mph - N/A   Scattered Clouds